Wind_Speed
26 26 27 28 29 29 29 29 29 29 30 31 30 28 27 26 25 24 25 25 24 24 23 23 22 22 21 21 22 23 24 25 27 28 30 31 32 31 31 29 28 26 24 23 22 20 18 17 17 16 15 16 16 17 18 18 18 19 19 19 19 20 20 20 20 20 20 19 18 19 20 19 17 17 17 17 16 16 17 18 17 16 16 15 16
23 24 25 27 27 28 28 28 29 29 30 31 30 29 29 28 27 26 26 26 26 26 25 24 25 24 24 23 24 24 24 24 26 28 29 31 32 33 32 30 29 27 27 25 24 22 20 19 19 18 17 18 18 18 19 19 19 19 19 20 20 21 21 21 21 21 22 22 21 20 22 22 21 20 19 18 19 18 18 19 19 18 18 17 17
22 22 24 25 26 27 28 29 29 30 30 31 30 30 30 29 29 28 28 28 28 29 28 27 27 27 26 26 26 26 26 25 25 27 29 30 32 33 33 31 30 28 28 27 26 24 23 22 22 21 20 20 19 19 20 20 20 19 19 20 21 22 22 22 22 22 23 23 23 22 22 23 23 23 21 20 21 21 20 21 21 20 20 20 20
23 23 23 24 25 26 28 29 30 30 31 30 30 30 30 30 30 30 30 30 30 31 31 30 30 29 29 29 28 28 27 27 26 26 28 29 31 33 33 32 31 29 28 29 28 27 25 24 23 24 23 22 21 21 21 21 21 20 20 20 20 21 23 23 22 23 23 23 23 23 23 23 23 24 24 23 23 23 23 22 22 22 22 21 21
26 24 24 25 25 26 28 29 29 30 30 30 30 30 30 31 31 31 31 31 32 32 32 32 32 31 31 31 31 30 29 28 27 26 27 29 30 32 34 33 32 30 29 30 30 29 27 26 25 26 26 24 23 23 23 23 22 22 21 21 20 21 22 23 23 23 23 23 23 23 23 23 24 24 25 25 24 24 23 23 23 22 22 22 21
29 27 26 26 27 27 28 28 29 29 28 29 29 30 31 32 32 31 31 32 33 33 33 32 32 33 32 32 32 32 30 30 29 28 27 29 29 31 33 34 33 32 31 31 31 31 30 28 27 27 28 27 25 24 24 24 24 23 23 22 21 20 21 22 22 23 23 23 23 23 23 23 24 25 25 25 25 25 24 23 23 23 22 22 21
32 30 28 28 28 28 28 28 28 27 26 27 28 29 30 31 31 30 29 30 32 33 33 31 31 32 32 32 32 32 32 31 30 30 28 29 30 30 32 34 34 34 33 32 32 32 32 31 29 29 29 29 28 26 25 26 26 25 24 23 22 21 21 21 22 23 23 22 22 23 23 23 23 24 25 25 25 24 25 25 24 23 23 23 21
36 33 31 30 30 29 29 28 27 26 25 25 26 27 27 27 27 28 26 26 27 29 30 29 28 29 30 30 31 31 32 32 32 31 30 29 30 30 32 34 35 35 34 33 34 34 33 33 32 31 31 31 30 28 27 27 28 27 26 24 23 21 21 22 22 23 23 23 22 22 23 24 23 23 24 25 25 24 25 25 24 23 24 23 22
38 37 35 32 31 30 30 29 28 26 26 26 26 26 25 25 25 25 25 23 23 25 26 27 27 26 27 29 30 31 33 33 32 32 31 30 31 31 32 33 35 36 36 35 35 35 35 35 34 33 32 32 31 30 29 29 30 29 29 27 24 22 22 23 23 23 23 22 22 22 23 23 23 23 23 23 23 23 23 23 23 23 24 25 24
38 39 37 35 33 32 31 30 29 28 27 27 26 26 26 26 26 26 25 24 23 23 24 26 27 26 25 27 29 31 32 32 32 32 31 31 31 32 33 33 34 36 37 37 37 37 37 37 36 35 34 34 33 31 30 31 32 31 31 30 27 23 23 24 25 24 23 22 22 23 24 24 22 22 22 21 20 21 22 22 22 23 24 25 26
37 38 38 37 36 35 33 31 30 29 29 29 28 27 27 28 28 28 28 27 25 24 24 26 26 26 25 25 27 29 31 31 31 31 31 32 32 32 33 34 35 36 37 38 38 38 38 38 38 37 36 36 35 33 31 32 34 34 33 32 30 27 25 25 26 25 24 23 23 24 25 24 23 23 22 20 20 20 21 22 22 24 25 25 26
33 36 38 39 38 36 34 33 31 31 31 31 31 30 29 30 30 30 30 30 29 28 27 26 26 27 27 26 25 27 28 29 29 29 30 31 32 33 34 35 36 36 37 38 39 39 40 40 39 39 39 38 37 35 33 33 35 35 34 34 33 30 28 27 27 27 25 24 23 24 25 25 24 24 23 22 21 22 22 23 24 24 25 26 26
32 32 36 38 38 37 36 34 33 32 32 33 33 32 32 31 32 32 32 32 31 30 29 28 28 28 28 28 27 26 26 27 27 27 28 30 31 33 35 36 37 37 37 37 39 40 40 41 41 41 41 40 40 38 36 36 37 37 36 36 36 33 31 29 28 28 27 26 25 24 25 25 25 25 25 24 24 24 25 26 26 25 25 26 26
31 29 31 34 36 37 37 35 34 33 34 35 35 34 34 33 33 34 34 33 32 31 30 30 29 29 29 29 29 28 27 27 27 27 27 28 31 33 35 37 38 39 39 38 39 40 41 42 43 43 43 43 42 41 39 38 38 39 38 38 37 36 34 32 30 29 29 28 27 25 25 25 26 26 26 26 26 26 26 26 26 26 26 26 26
31 27 27 30 32 35 36 36 36 36 36 37 36 36 35 35 35 35 35 34 33 32 32 31 30 30 30 31 32 32 31 30 30 29 28 28 31 33 35 38 39 39 40 40 41 42 42 43 44 44 45 46 45 44 43 41 40 41 41 40 39 38 36 34 32 30 29 28 28 27 26 26 27 26 26 26 27 27 26 26 26 26 26 26 26
31 27 26 27 29 31 34 36 38 38 38 38 37 37 36 36 36 36 36 35 34 34 34 33 33 33 33 34 35 35 35 34 33 32 31 30 31 34 36 38 39 40 40 41 42 42 43 44 45 46 47 48 47 45 45 44 43 44 43 42 41 40 38 36 34 31 30 29 28 28 27 27 27 27 26 27 27 27 27 26 27 26 26 26 26
31 29 28 28 28 29 32 34 36 37 38 37 36 36 36 37 37 37 37 36 36 36 36 36 36 36 36 37 37 37 37 37 36 35 34 33 33 34 36 38 40 40 41 41 42 43 43 44 46 48 48 49 48 47 47 47 46 46 45 44 44 42 40 38 37 33 31 30 29 29 28 27 27 27 27 28 27 28 28 28 28 27 26 26 25
31 32 30 30 30 30 31 33 34 36 36 35 35 36 37 38 38 38 38 38 38 38 38 38 39 39 40 40 40 39 39 40 39 38 37 36 35 36 37 39 40 40 40 41 42 43 44 44 47 49 50 49 49 49 48 49 49 48 48 47 46 44 41 40 39 36 33 32 31 30 30 29 28 28 28 28 28 28 29 29 28 27 26 24 22
31 34 34 33 33 32 33 34 34 34 34 34 35 37 38 39 39 39 39 39 39 40 40 41 41 41 42 43 43 43 42 42 41 40 39 38 38 38 39 40 41 41 41 41 43 45 46 47 48 50 51 50 50 50 50 50 50 51 51 50 48 46 43 42 41 38 35 34 32 31 31 30 29 29 29 28 28 29 29 29 28 27 26 23 21
29 33 36 36 35 34 34 34 34 34 35 36 37 38 39 40 40 40 40 40 41 42 42 43 43 43 44 45 46 46 45 45 44 43 41 41 41 41 41 41 42 43 43 44 45 46 48 49 50 51 51 51 51 51 52 51 51 53 54 52 50 49 46 44 42 40 37 35 34 33 33 32 30 30 30 29 28 28 29 29 28 26 25 23 22
27 32 36 37 35 34 34 34 35 36 37 37 38 39 40 41 42 42 42 42 43 43 44 44 44 44 44 46 47 47 47 47 47 45 43 42 42 43 43 43 44 44 45 47 47 48 49 51 52 52 52 51 51 53 55 53 52 54 56 54 52 50 49 47 45 42 39 38 37 37 36 34 32 32 31 29 28 28 29 29 28 26 23 22 22
25 30 35 37 37 36 35 35 36 37 38 38 39 40 42 43 44 45 45 44 44 44 44 43 43 42 41 43 44 44 45 47 46 44 41 41 41 42 43 44 45 46 47 48 49 49 51 53 55 55 54 53 51 53 56 55 54 56 57 56 54 53 51 49 47 44 42 41 40 39 38 36 34 33 32 29 27 27 28 28 26 24 22 22 22
25 28 33 38 39 38 38 37 37 38 39 40 41 42 44 45 46 46 46 45 44 44 44 44 43 43 42 41 40 40 41 44 44 42 41 41 41 42 44 46 46 47 48 48 49 50 51 54 56 57 57 56 53 54 56 57 56 56 56 56 56 55 52 51 49 46 44 43 41 40 39 38 35 34 32 29 26 25 26 26 24 23 22 22 22
25 27 33 39 41 41 41 40 39 40 41 42 43 44 45 46 45 45 44 45 45 45 45 46 46 46 45 44 42 40 40 42 43 43 41 41 41 42 44 45 46 46 47 48 49 50 51 53 56 58 59 59 57 56 57 58 57 55 55 55 56 55 53 52 51 47 45 44 43 41 40 39 36 34 32 29 26 26 26 25 23 23 22 22 22
23 25 31 38 43 45 44 43 41 41 41 42 42 42 42 43 43 43 43 44 45 45 45 46 47 47 47 47 45 44 43 43 43 43 41 40 40 41 42 44 45 46 47 48 48 49 51 53 57 59 60 60 59 58 57 58 57 55 53 55 57 56 55 54 52 49 46 45 44 43 41 39 36 34 32 29 27 26 26 24 24 23 23 22 22
22 24 26 33 40 44 43 41 40 38 38 37 37 37 38 39 41 42 43 44 45 45 45 45 46 46 46 45 45 44 43 43 43 43 43 42 43 44 45 46 47 48 49 49 49 51 52 53 57 60 61 61 61 60 58 57 55 53 53 54 57 58 57 55 54 50 47 46 46 43 41 39 36 35 33 30 28 26 25 25 25 24 22 22 22
21 22 23 26 31 34 35 34 33 32 31 31 32 34 35 37 39 40 42 43 43 43 43 42 42 42 42 42 43 43 43 43 44 44 45 47 48 49 49 50 51 52 53 52 53 55 54 54 57 60 61 62 63 62 60 58 55 54 54 55 58 60 59 56 55 51 47 47 47 45 42 39 37 36 34 30 27 26 25 25 25 23 22 22 22
21 22 23 24 26 27 28 28 27 27 27 27 29 31 32 34 36 38 39 39 38 37 37 37 37 38 39 39 41 41 42 44 44 42 43 46 49 51 53 53 54 55 56 56 58 58 57 58 59 58 56 58 60 62 63 63 60 58 57 58 60 61 59 57 54 52 50 48 48 47 45 42 39 37 33 28 26 26 26 26 25 23 22 22 23
22 22 23 23 24 24 25 25 24 24 25 26 28 28 28 29 32 33 34 33 33 33 33 34 35 37 38 40 41 41 42 43 43 43 44 46 48 51 53 54 55 57 57 57 59 59 59 62 65 61 55 54 56 60 63 65 63 61 61 61 62 62 62 60 57 55 52 50 50 49 47 44 40 36 30 26 26 27 27 26 24 23 23 23 24
24 24 24 24 24 23 23 23 22 23 24 25 26 26 26 27 29 30 31 32 33 34 35 36 38 39 41 42 43 44 46 46 46 46 46 47 47 49 51 53 55 56 55 55 57 58 59 62 67 65 60 56 56 59 62 63 64 64 64 65 65 65 66 63 60 57 54 51 50 50 48 44 40 33 27 26 27 28 28 26 24 23 24 24 25
24 24 24 24 24 23 23 23 22 23 25 25 26 26 27 28 29 31 32 33 34 36 37 39 41 42 43 45 46 47 48 48 48 48 47 47 47 48 49 51 53 56 56 56 57 58 59 62 67 69 65 61 61 63 63 63 64 65 66 67 67 68 68 66 63 60 56 53 52 51 47 42 36 30 27 27 28 29 28 26 24 24 24 25 27
25 25 25 24 24 24 24 23 24 25 25 26 27 28 29 29 30 31 33 34 36 38 40 42 43 45 47 48 48 48 48 48 49 49 49 50 50 50 51 52 54 56 58 58 60 62 63 64 69 73 73 70 69 70 68 66 65 65 67 69 70 69 69 68 65 62 58 55 53 51 46 40 34 29 28 28 29 29 29 27 25 24 25 26 28
26 26 26 25 25 25 25 25 25 26 26 27 28 28 29 31 32 34 35 37 39 40 42 43 44 46 47 48 49 49 49 49 49 49 50 51 52 53 55 56 56 57 58 61 63 65 65 66 70 75 77 76 74 73 72 70 69 68 68 70 72 71 69 68 66 64 60 56 53 50 46 41 35 30 28 29 29 30 29 27 25 25 26 28 28
26 26 26 26 26 26 26 26 26 27 27 28 28 29 31 33 34 36 38 39 40 42 43 43 44 44 46 46 47 47 47 47 47 48 48 50 51 53 54 56 56 57 60 63 65 67 69 71 75 78 80 80 79 77 75 72 71 69 69 70 70 68 68 67 67 64 60 55 52 49 44 40 35 31 29 30 31 31 30 27 25 26 28 29 28
25 25 25 25 26 26 26 26 27 27 28 29 30 31 32 34 35 36 37 38 39 40 40 40 40 41 42 42 43 43 43 44 45 46 48 50 51 53 55 56 57 58 61 63 65 68 70 73 77 81 84 84 84 81 78 76 74 71 70 70 70 68 68 68 67 63 58 54 51 48 43 39 35 32 30 31 31 30 29 27 25 27 30 30 28
23 24 24 24 25 25 25 26 27 27 28 29 30 32 33 34 34 35 35 35 35 35 36 36 37 38 39 40 40 40 42 43 44 45 47 49 51 53 55 56 58 60 62 64 65 66 68 70 72 75 78 82 85 87 84 80 77 74 72 72 72 70 70 70 67 63 58 53 48 44 42 39 35 31 30 31 31 30 27 25 26 29 31 31 29
21 21 21 22 22 23 24 25 27 28 29 31 32 33 33 33 32 31 31 31 31 32 33 34 35 36 37 38 38 39 41 42 44 45 47 49 51 53 55 56 58 60 61 63 64 65 67 67 68 69 71 73 80 86 86 81 77 76 74 73 73 70 68 67 65 61 56 52 48 43 40 37 33 30 30 31 30 28 26 26 28 30 31 31 30
18 18 19 20 21 23 24 26 28 29 30 31 31 30 29 29 28 28 28 28 29 30 30 31 32 33 34 35 36 38 40 41 42 44 46 48 50 51 53 55 57 58 59 60 62 63 63 62 63 67 68 65 68 78 84 84 82 77 71 70 71 69 64 62 61 57 50 45 43 41 37 34 32 30 30 30 28 26 26 28 29 30 30 30 29
16 16 17 19 21 22 24 25 26 26 26 26 25 25 25 25 24 24 25 26 27 28 28 28 29 30 31 33 34 36 37 38 39 40 42 44 46 47 48 50 52 53 54 54 53 54 54 52 52 54 54 51 56 69 78 81 80 75 68 66 66 64 61 60 60 54 46 40 39 38 35 33 31 29 28 27 26 26 28 30 29 29 29 30 27
16 16 17 19 20 21 22 22 22 22 21 21 20 21 21 21 21 21 22 23 25 26 27 27 28 28 29 30 32 33 34 35 36 37 39 41 42 42 43 43 45 47 49 47 46 46 44 39 36 36 36 38 47 60 72 81 80 70 61 59 60 61 61 58 52 44 40 38 38 36 34 31 29 27 25 25 26 28 29 28 27 27 29 29 27
16 16 17 18 18 18 19 19 19 18 18 17 17 18 19 19 19 20 21 23 24 25 26 27 28 28 29 30 32 34 34 34 34 34 36 38 38 37 36 35 37 40 42 43 45 43 35 28 24 23 23 28 41 54 66 76 73 58 49 52 59 62 59 51 41 35 35 35 34 32 31 29 25 22 23 26 28 28 28 27 26 27 28 28 27
15 15 16 15 15 15 15 16 16 16 16 16 17 18 19 20 20 21 22 23 24 25 25 25 26 28 29 30 31 32 32 31 31 31 31 33 33 31 29 28 30 33 34 36 41 40 32 27 26 23 20 22 36 50 57 56 51 47 47 52 55 50 44 39 35 34 34 32 30 28 27 24 22 21 24 27 28 27 27 26 26 26 26 26 26
15 16 15 15 15 15 15 16 17 17 18 19 20 20 21 21 22 23 23 23 23 24 24 24 25 27 28 28 28 29 28 28 27 26 27 28 28 26 24 24 26 27 25 26 30 31 27 25 23 19 15 17 33 52 57 51 46 44 44 44 40 33 32 32 31 31 30 27 25 24 22 21 21 23 26 27 26 25 26 26 25 25 25 25 25
16 17 17 17 18 19 19 20 21 22 23 23 24 24 24 24 24 24 23 22 23 23 24 24 25 26 26 26 26 26 26 26 25 25 25 24 22 21 20 20 21 22 22 20 21 22 20 17 11 4 8 13 21 30 34 34 34 34 35 34 29 25 24 23 22 23 23 22 20 20 21 21 23 24 25 25 24 25 25 25 25 25 25 25 25
17 18 19 20 21 22 23 24 24 25 26 27 26 26 26 25 25 24 23 23 23 23 23 24 24 24 24 24 24 24 25 25 24 24 23 21 18 18 18 16 17 19 19 17 16 16 16 12 7 6 9 14 19 21 20 19 20 20 22 22 20 17 16 17 18 18 17 17 18 20 21 23 23 23 23 24 24 24 24 24 25 25 25 25 25
20 21 22 23 24 26 27 27 27 27 28 28 27 27 26 25 24 24 23 23 23 23 23 24 23 23 23 23 22 22 24 25 23 22 21 19 17 17 16 14 15 16 15 13 14 14 12 9 6 2 1 5 10 13 11 9 9 11 13 15 15 14 15 15 15 15 15 16 19 21 22 22 21 22 23 23 23 22 23 24 25 25 25 25 25
21 22 23 24 24 24 25 25 24 24 24 24 24 23 22 21 21 21 21 22 22 23 23 22 21 21 22 23 22 22 24 24 21 20 19 18 17 16 14 13 13 12 10 11 12 9 6 6 5 2 3 4 6 9 9 9 10 12 12 13 13 14 14 14 14 16 17 19 20 21 21 21 21 22 22 22 22 22 23 25 26 25 24 24 25
16 17 17 18 18 18 18 18 17 17 18 18 18 17 17 17 17 18 19 20 21 21 22 22 21 21 22 23 22 22 22 22 20 19 19 18 15 14 13 10 9 8 7 7 7 3 3 4 5 5 7 8 9 10 11 11 12 13 12 12 12 12 13 14 16 18 18 18 19 20 21 21 22 22 22 22 22 22 23 25 25 25 24 24 25
11 11 11 11 12 12 12 13 13 13 13 14 14 14 15 15 16 17 17 18 19 20 21 21 21 21 21 21 20 19 20 20 19 18 18 16 14 12 10 9 8 7 5 5 4 2 1 2 3 6 8 8 9 9 9 10 11 12 11 10 10 12 14 16 16 17 18 19 20 21 21 22 22 22 22 22 22 23 24 24 24 24 24 23 25
9 9 9 9 9 10 10 11 11 11 11 12 12 12 13 14 14 15 16 17 18 19 19 19 20 20 19 18 18 18 18 18 16 13 12 12 11 10 8 7 6 5 3 3 4 4 2 2 5 7 9 9 8 8 9 10 11 11 11 12 13 13 15 16 17 18 19 20 21 22 22 22 22 23 23 22 22 23 24 24 24 24 24 24 25
7 7 8 8 8 9 9 9 10 10 10 11 11 12 12 13 14 15 16 16 17 17 18 18 18 17 16 16 15 15 14 13 10 7 8 9 8 6 4 4 3 1 1 2 3 3 3 4 6 9 10 10 9 10 10 11 11 12 13 14 15 15 15 16 17 18 19 21 21 22 22 23 24 24 24 23 23 24 25 24 24 24 24 25 26
Wind_Direction
219 219 220 221 222 223 223 224 225 227 228 230 231 232 232 234 236 238 239 241 242 244 247 251 254 254 254 254 255 255 252 249 248 246 243 241 241 242 244 246 249 252 254 255 257 260 262 265 268 272 277 282 287 292 297 301 304 308 312 314 313 311 311 312 312 312 312 312 311 308 310 311 309 308 310 312 313 314 315 318 321 322 322 322 320
219 218 218 219 220 222 224 226 227 229 230 232 232 232 233 235 237 240 241 242 243 245 248 251 254 255 254 254 254 256 256 252 250 249 247 244 242 243 244 246 248 251 254 256 259 261 264 266 269 272 276 280 284 289 293 297 299 302 306 309 310 310 309 309 308 309 309 309 309 308 307 309 309 307 306 305 307 310 312 315 318 319 320 320 318
221 219 219 219 219 220 223 226 228 229 231 232 233 233 235 237 238 241 243 244 244 246 249 252 253 255 255 254 253 255 257 256 252 250 249 247 244 244 244 246 248 250 253 256 259 260 263 266 269 272 275 279 283 287 290 295 299 300 302 304 306 308 308 308 306 306 305 306 309 310 308 308 307 306 306 304 304 307 309 312 315 316 317 318 316
221 218 217 218 219 219 221 223 225 228 230 232 233 234 236 238 240 241 243 245 246 247 249 252 254 255 255 256 255 255 257 258 255 252 250 248 246 245 244 245 247 249 251 255 258 260 261 264 267 271 274 277 280 284 288 293 297 298 299 300 303 305 306 307 306 304 303 304 306 308 308 308 307 305 306 307 305 305 306 308 310 311 314 315 314
224 220 216 215 216 218 219 221 223 225 227 230 232 234 237 239 241 242 242 245 248 249 251 253 255 256 257 258 259 258 257 258 258 255 251 249 247 246 245 245 246 247 249 252 256 258 260 262 265 269 273 275 278 282 286 290 293 296 297 299 301 302 303 306 308 305 303 302 302 302 303 305 305 305 306 308 307 305 304 304 304 306 308 310 310
227 224 220 216 213 214 216 218 220 222 225 228 232 234 237 240 243 244 244 245 249 252 254 254 256 258 259 258 259 259 258 258 258 257 254 251 248 246 245 245 245 246 247 250 254 257 259 260 263 266 270 274 276 279 283 286 290 293 296 298 299 300 301 304 307 307 304 301 299 298 298 299 300 302 303 305 305 304 303 301 300 302 304 305 306
227 226 224 220 215 213 214 215 216 219 221 224 228 233 235 239 242 244 244 245 247 251 254 254 255 257 258 258 257 257 257 256 257 257 255 252 249 247 246 245 245 245 246 248 251 255 257 258 260 263 267 272 275 278 281 284 287 289 292 295 297 298 299 301 303 305 306 304 299 296 295 295 295 297 298 300 303 303 301 299 297 297 299 301 303
225 226 225 223 220 216 215 215 216 218 220 222 225 229 232 234 238 242 244 242 243 247 252 254 254 253 254 255 253 253 254 255 255 256 255 254 251 249 247 246 246 246 246 247 250 253 256 257 259 261 264 269 273 277 280 282 284 286 288 290 293 295 296 297 300 302 304 304 301 297 294 292 293 293 293 296 300 301 298 295 293 294 295 297 301
223 225 225 224 222 220 218 218 218 219 223 225 226 229 233 235 238 242 244 243 241 243 249 253 254 251 250 251 251 251 252 254 254 255 255 254 253 252 250 249 248 248 247 247 249 252 255 257 258 260 262 266 270 273 278 280 282 283 285 287 290 293 293 295 297 301 303 303 302 299 295 294 294 293 293 297 298 295 292 290 291 292 293 295 300
223 224 224 224 223 223 221 220 220 221 225 229 230 232 236 239 242 245 247 249 247 246 248 252 255 254 251 250 250 251 253 255 256 256 256 256 255 254 253 252 250 249 249 249 250 252 254 257 258 260 261 264 267 269 274 278 280 281 283 286 288 289 290 292 295 300 303 303 302 300 299 298 298 295 294 296 295 290 290 290 290 290 290 293 298
227 224 224 225 224 224 222 221 221 223 226 231 234 235 237 241 245 248 250 253 253 253 253 254 257 259 258 254 252 252 255 258 259 258 257 257 257 256 255 255 254 252 251 251 251 252 254 256 259 260 261 263 265 267 270 274 277 280 282 285 286 287 287 289 293 298 302 302 300 299 299 301 300 297 295 293 290 289 290 289 288 289 292 295 298
234 228 225 225 224 224 223 222 221 223 226 230 233 235 236 239 243 247 250 253 255 257 258 258 259 262 264 263 259 256 258 261 263 262 259 259 258 257 257 256 256 255 253 252 252 253 254 256 258 260 262 263 265 267 268 271 274 277 280 282 285 286 286 287 290 294 298 299 297 296 298 300 298 297 296 293 288 287 287 285 287 291 293 296 299
238 233 227 226 225 225 224 222 222 223 225 228 231 233 234 237 240 245 248 251 253 256 258 259 259 260 263 266 266 264 263 264 265 265 262 261 259 258 258 257 257 257 256 254 253 254 255 256 258 259 262 264 265 266 267 269 271 274 277 279 282 284 285 286 288 290 292 293 293 293 295 296 295 295 295 292 288 286 285 285 287 291 293 296 299
238 236 230 227 226 225 225 223 223 223 225 227 230 232 234 237 239 243 246 249 252 255 257 259 260 261 262 265 267 267 266 266 266 266 263 261 260 259 258 259 258 258 258 257 255 255 255 256 258 259 261 263 265 266 266 267 269 271 273 276 279 281 282 283 285 286 287 288 289 289 290 291 292 292 292 291 290 287 284 284 287 291 293 295 295
237 236 232 229 227 227 226 224 223 223 225 227 230 233 235 237 239 241 245 249 252 254 257 259 262 263 263 264 266 267 267 266 266 266 263 260 259 258 258 259 259 259 259 258 257 256 256 257 257 258 260 261 263 264 266 267 268 269 271 273 276 278 279 280 282 284 283 283 284 285 285 286 289 291 291 291 290 288 285 284 285 288 291 291 291
236 236 232 229 229 229 227 224 223 224 226 228 231 234 236 238 240 241 244 247 250 253 255 258 261 263 263 264 266 268 268 268 267 266 264 260 256 256 257 258 259 259 259 259 259 259 258 258 259 259 260 261 262 264 265 266 266 267 269 271 273 275 277 278 279 280 279 278 279 280 280 282 286 289 290 289 289 287 285 283 283 286 288 288 289
235 236 233 229 228 229 228 226 226 226 229 231 234 236 238 239 241 242 244 246 249 252 255 256 259 262 264 265 266 268 269 270 270 269 268 264 259 256 256 257 258 259 260 260 260 260 260 260 260 261 261 262 264 265 264 265 266 267 268 270 272 273 275 275 275 277 277 275 274 275 276 279 282 285 286 287 287 285 283 281 281 283 284 284 287
235 235 233 229 227 227 227 227 227 229 231 234 236 238 239 240 241 243 244 246 248 251 253 254 256 259 262 264 266 266 266 268 269 270 269 266 262 258 256 256 258 259 260 260 260 261 260 259 259 260 261 262 264 266 266 266 267 268 269 270 271 272 273 273 273 274 274 272 271 272 273 275 278 281 283 284 285 283 282 281 280 279 279 280 283
237 234 233 230 227 225 225 226 227 229 231 234 236 237 238 240 241 242 243 244 246 248 250 252 254 257 258 260 262 264 264 264 266 268 267 267 265 262 259 257 257 259 260 260 260 260 260 259 259 260 261 261 263 265 267 267 268 269 270 271 272 273 274 272 271 272 272 269 268 269 270 272 275 278 280 281 282 282 281 279 277 275 274 275 277
241 235 233 232 229 226 226 227 227 228 230 231 233 235 237 238 239 239 240 242 243 245 247 250 253 255 257 259 260 262 264 264 265 267 267 267 266 264 262 259 258 259 260 259 259 259 260 260 260 260 261 261 261 263 265 266 267 269 270 271 274 276 275 273 271 270 269 267 265 265 267 270 272 274 277 278 279 280 279 277 275 272 270 270 271
242 236 233 232 232 230 228 228 228 228 229 229 231 233 235 236 237 237 238 239 241 243 245 248 250 254 257 258 260 261 263 264 265 266 267 267 267 266 264 262 259 258 258 259 260 261 261 261 261 260 261 261 261 262 264 265 266 267 269 271 274 275 274 272 271 269 266 264 263 263 266 268 270 272 275 277 278 278 278 276 273 270 268 267 267
241 237 232 230 231 231 229 228 228 227 228 229 230 232 233 235 236 236 237 238 240 243 245 246 248 251 255 258 259 260 262 263 264 266 267 267 267 267 267 266 263 261 259 259 261 262 263 264 264 263 262 262 261 262 263 264 265 265 267 270 271 271 271 270 269 267 264 263 263 264 266 267 268 270 273 274 275 276 276 274 271 268 265 263 264
237 236 233 229 229 230 229 228 229 229 230 232 233 234 235 236 237 237 237 238 239 242 244 247 249 252 256 260 261 260 261 263 265 267 267 266 267 268 268 268 268 266 265 264 263 263 264 265 266 266 266 264 263 262 263 264 263 264 266 267 268 268 268 267 266 265 263 262 262 263 264 265 266 268 270 271 273 275 275 271 267 264 261 261 264
235 235 233 230 229 229 229 229 230 231 234 235 237 238 238 238 238 238 238 239 240 244 247 250 253 255 257 260 261 261 262 263 265 268 268 267 267 268 268 269 269 268 268 267 266 264 263 264 265 266 266 266 265 263 263 264 263 263 264 265 266 266 266 264 264 263 260 260 261 262 262 263 265 266 267 267 269 272 273 268 261 257 256 257 262
234 233 233 232 231 230 229 230 231 233 235 237 238 239 240 239 239 239 239 241 245 249 251 253 254 255 256 258 259 261 262 263 264 266 267 266 265 266 267 267 267 266 266 266 265 263 262 262 262 263 264 265 264 263 262 262 262 261 260 261 263 264 263 263 262 261 259 258 260 260 259 261 262 263 263 262 264 269 270 265 257 255 255 255 259
233 235 236 236 234 232 231 231 232 234 236 238 239 239 240 240 240 240 242 245 248 251 252 253 254 255 257 259 261 261 262 263 264 265 266 266 265 264 264 263 263 263 264 265 265 263 261 262 262 262 262 263 263 262 260 260 261 259 257 258 260 261 261 261 261 261 258 256 257 257 257 258 260 259 257 257 261 267 267 259 255 256 258 259 263
229 229 229 229 229 228 228 229 230 232 233 234 237 238 240 241 242 243 245 248 250 251 253 255 258 260 262 263 263 263 263 264 265 266 267 267 265 263 262 262 262 262 263 264 265 265 264 262 261 260 260 260 261 261 260 258 257 256 254 254 256 258 259 259 261 260 257 255 255 255 255 256 256 254 253 256 261 264 260 254 254 257 259 262 267
225 220 218 219 219 221 223 225 226 228 229 231 235 237 239 241 244 246 249 251 254 255 257 258 260 262 262 262 263 263 264 265 266 266 266 266 266 265 264 263 263 263 264 264 265 266 266 265 263 261 259 257 258 259 259 257 256 254 253 253 254 257 258 257 257 257 255 252 252 252 251 251 251 251 253 256 259 259 255 251 252 255 258 263 269
227 224 223 222 221 222 225 226 227 229 231 234 238 240 241 243 245 248 251 254 256 258 260 261 263 264 265 266 266 266 266 266 266 266 265 266 267 267 267 266 266 266 267 267 268 269 269 268 268 267 264 259 258 258 259 259 257 254 253 252 252 254 256 255 254 254 253 250 250 249 249 249 250 252 254 253 253 255 253 249 249 253 258 264 270
227 227 227 227 227 228 230 230 231 233 236 240 243 244 245 247 249 252 255 257 259 261 263 265 267 268 269 270 270 271 271 270 270 269 269 269 270 270 271 272 273 273 273 272 271 270 270 269 270 270 268 264 261 260 258 258 258 255 252 251 251 252 254 254 252 251 250 249 247 247 247 247 249 252 252 250 251 254 251 246 245 251 258 265 271
226 226 227 228 228 230 232 233 234 237 242 247 249 251 252 254 256 259 262 264 266 268 269 270 272 273 274 274 275 275 276 276 276 276 275 275 275 274 275 276 278 280 280 278 274 271 270 270 269 268 267 265 265 263 260 257 256 255 252 250 249 250 251 251 250 249 248 246 245 244 243 244 247 247 246 247 251 251 247 243 244 250 259 266 270
224 226 227 229 231 233 236 239 241 245 249 253 256 259 262 264 266 268 270 272 274 275 276 276 276 277 277 277 277 278 278 279 280 281 281 281 281 280 279 279 280 281 281 279 276 275 274 272 270 270 270 267 265 263 260 256 254 253 251 249 247 247 248 248 247 247 245 243 242 241 239 241 245 245 243 245 248 246 243 242 245 251 259 265 269
228 230 233 236 238 242 245 247 250 253 256 259 262 265 268 271 273 274 275 275 276 276 277 277 277 277 278 278 279 281 282 282 283 284 284 284 284 284 284 283 283 283 281 280 280 280 278 276 273 272 271 269 266 262 259 256 254 252 249 247 245 244 245 245 244 244 242 240 239 238 236 237 241 241 240 242 244 243 242 243 246 253 260 264 268
235 238 240 243 246 248 251 253 256 258 260 263 266 269 271 272 273 274 274 275 275 276 277 278 279 280 281 282 283 284 284 285 285 285 285 285 284 285 285 284 284 284 283 282 283 282 281 278 275 272 271 271 268 263 258 256 255 251 248 247 245 242 241 241 240 240 239 237 234 233 233 233 233 233 234 237 239 239 240 243 250 258 261 263 268
240 242 245 248 250 253 256 258 261 264 266 268 269 270 272 273 273 274 275 276 277 278 278 279 280 281 281 281 282 282 282 281 281 281 282 282 282 282 282 282 282 281 280 279 279 278 277 275 274 273 272 270 269 265 260 256 254 251 246 244 242 240 238 237 237 237 235 231 229 230 231 229 226 226 229 233 234 236 238 244 254 261 262 263 267
243 245 248 251 254 258 261 264 267 269 270 272 273 273 274 274 274 274 275 275 275 276 276 277 278 278 278 278 278 278 278 278 278 278 278 279 279 280 280 280 280 279 277 276 276 276 276 275 274 273 272 271 269 266 261 255 251 249 245 242 239 237 236 235 233 231 229 226 225 226 226 223 221 222 225 226 229 233 237 244 253 259 261 264 267
244 247 252 256 259 263 266 267 269 271 271 272 272 272 272 272 273 273 273 273 273 273 273 273 274 275 276 277 277 277 277 278 279 279 279 279 280 280 280 279 279 279 279 279 280 281 281 281 278 274 272 269 265 262 260 257 252 247 242 237 233 232 232 231 229 225 221 220 221 222 220 218 219 220 221 222 226 231 236 242 249 254 259 264 268
246 251 256 260 262 265 266 267 267 268 269 269 269 269 270 270 270 271 271 271 271 272 272 274 275 276 277 279 280 281 282 282 282 282 282 281 281 281 281 281 281 282 283 285 287 288 289 289 284 277 272 268 261 256 255 254 252 248 240 233 229 229 228 228 226 222 216 215 216 216 216 218 219 219 218 220 225 230 235 240 246 252 259 265 268
245 251 256 261 264 265 265 266 266 266 267 267 267 267 267 268 269 269 270 272 274 276 277 279 280 281 283 284 285 286 287 288 289 288 287 286 286 286 288 288 289 291 291 292 295 298 298 297 291 283 277 269 256 247 244 244 244 244 240 233 230 229 227 224 221 217 210 207 209 212 214 217 217 215 217 221 225 229 234 239 245 252 260 265 265
245 250 254 258 261 262 263 264 265 265 266 267 268 270 270 271 273 275 277 279 281 282 283 284 284 285 288 289 291 293 295 298 299 299 297 297 297 298 300 301 303 304 303 305 311 315 311 305 301 295 284 264 247 240 239 237 235 236 238 236 232 230 227 219 210 201 198 201 207 211 212 212 212 212 216 221 225 229 234 240 248 254 261 264 262
244 247 251 254 258 260 262 263 264 265 267 269 271 275 276 277 280 282 284 286 288 288 289 291 290 291 292 295 298 300 302 305 307 307 306 305 306 310 314 316 317 318 318 323 331 331 322 313 315 315 298 268 246 235 229 225 225 231 239 235 226 220 215 204 191 186 193 200 205 207 208 210 211 213 215 220 226 232 236 242 250 256 260 263 262
243 245 247 251 254 256 259 262 264 266 269 271 273 275 277 281 284 286 289 292 293 293 294 296 296 296 296 298 301 303 305 308 310 311 311 310 311 318 326 330 328 327 331 340 345 341 333 324 320 317 311 285 254 234 222 220 225 232 228 215 204 196 188 178 177 186 197 203 205 207 209 210 210 210 214 219 227 235 241 247 253 257 260 262 261
246 247 247 248 250 252 255 259 262 265 268 270 272 273 276 280 284 287 289 291 291 291 292 293 295 296 297 298 300 302 306 311 314 314 315 316 317 322 331 337 335 333 338 350 352 349 346 342 324 296 269 238 221 214 212 214 218 213 198 183 174 167 162 167 180 194 203 208 209 206 204 205 205 209 216 222 229 239 247 253 258 260 261 260 259
249 251 252 253 256 260 262 264 266 267 269 271 274 276 278 280 281 283 285 285 284 285 287 288 290 293 295 297 300 303 306 311 314 315 318 321 322 323 329 338 340 339 341 350 353 349 350 5 24 81 140 146 162 175 182 184 182 174 164 160 159 158 161 173 190 200 204 206 201 195 197 205 209 213 220 227 234 244 252 258 261 262 260 258 256
255 257 260 262 264 267 269 269 270 272 272 273 276 277 278 279 279 278 279 279 279 280 282 284 287 289 291 293 297 301 304 308 311 314 317 321 322 322 326 335 343 346 347 350 348 340 336 344 15 74 92 98 109 118 124 132 140 145 151 156 158 160 171 187 194 190 187 188 190 194 203 209 212 218 227 235 243 251 257 261 262 261 259 257 254
260 263 265 266 267 268 269 270 271 272 273 274 275 275 276 276 277 276 275 276 277 278 280 281 283 285 288 290 293 297 301 305 309 312 314 317 319 320 323 332 341 348 356 357 346 336 333 333 324 280 178 125 127 131 131 133 142 151 157 160 164 171 177 177 173 170 175 186 195 202 208 212 217 226 235 242 250 257 261 262 262 259 256 254 251
261 262 264 265 266 267 269 270 271 272 273 274 276 276 276 276 277 277 276 276 277 278 279 280 281 282 285 288 291 294 299 304 308 309 309 312 315 313 313 322 333 339 352 0 355 346 346 359 9 62 141 143 145 150 156 161 164 164 161 157 157 160 159 158 166 179 190 197 202 207 213 220 226 234 242 250 256 260 260 261 260 257 253 250 248
257 259 261 263 267 269 271 273 274 275 278 280 280 281 281 280 279 279 278 277 279 281 281 282 283 284 287 290 293 297 301 304 305 304 304 307 312 309 303 307 322 328 330 344 356 18 66 45 47 92 119 125 132 142 151 156 157 156 152 142 137 146 162 174 185 193 199 205 209 214 222 230 236 242 250 257 260 261 259 259 259 257 253 249 245
253 257 259 264 269 272 274 278 280 281 284 285 285 285 286 284 283 283 282 282 283 284 284 286 288 289 291 294 296 300 304 305 303 298 295 299 308 311 301 296 306 313 305 298 293 287 41 73 106 126 122 114 111 114 128 142 145 147 153 158 159 168 179 187 194 200 206 212 218 225 233 240 245 251 257 260 262 262 261 259 258 257 253 247 243
250 255 258 263 268 271 274 278 281 283 286 288 288 290 291 291 291 291 291 291 292 292 292 292 291 289 290 292 295 299 305 307 303 293 285 290 304 310 300 289 296 306 296 248 227 217 213 212 194 171 151 139 131 127 136 153 161 164 170 178 181 184 190 197 202 208 213 221 230 237 242 248 254 259 262 263 263 262 261 259 257 255 251 246 242
248 252 257 261 265 269 274 278 280 283 286 288 289 292 294 295 296 297 297 297 299 298 298 297 293 288 286 288 291 296 303 304 299 286 276 282 295 306 294 274 273 278 115 142 168 173 182 215 206 180 159 153 156 158 161 171 179 182 185 190 194 198 202 208 213 218 226 233 239 244 251 257 262 266 267 266 264 261 260 257 254 251 247 244 240
Height
3159 3161 3163 3165 3167 3170 3172 3174 3177 3179 3181 3182 3184 3186 3187 3189 3190 3191 3192 3193 3195 3196 3197 3198 3199 3199 3200 3201 3201 3202 3202 3203 3204 3205 3206 3207 3208 3209 3210 3211 3212 3213 3214 3215 3216 3216 3217 3217 3218 3218 3218 3218 3218 3217 3217 3217 3217 3217 3216 3216 3215 3215 3214 3214 3213 3213 3212 3212 3212 3210 3209 3209 3208 3208 3207 3206 3206 3205 3204 3203 3202 3201 3200 3200 3199
3156 3158 3160 3162 3164 3167 3169 3172 3174 3176 3177 3179 3181 3183 3184 3186 3188 3189 3190 3191 3192 3193 3195 3196 3196 3197 3198 3198 3199 3199 3200 3201 3202 3203 3204 3205 3206 3207 3208 3208 3210 3211 3212 3213 3214 3215 3215 3216 3216 3216 3217 3216 3216 3216 3215 3215 3215 3215 3215 3214 3214 3213 3213 3212 3212 3211 3211 3210 3210 3210 3208 3207 3207 3206 3205 3205 3204 3203 3203 3201 3201 3200 3199 3198 3197
3154 3156 3158 3159 3161 3164 3166 3168 3171 3172 3174 3176 3178 3180 3182 3183 3185 3186 3187 3189 3190 3191 3192 3193 3194 3195 3195 3196 3197 3197 3197 3199 3200 3201 3201 3203 3204 3205 3205 3206 3207 3209 3210 3210 3211 3212 3213 3214 3214 3214 3214 3214 3214 3215 3214 3214 3214 3214 3213 3213 3212 3211 3211 3211 3210 3210 3209 3208 3208 3208 3207 3206 3205 3204 3203 3203 3202 3201 3200 3200 3199 3198 3197 3196 3194
3151 3153 3155 3157 3159 3161 3163 3165 3167 3169 3171 3173 3175 3177 3179 3180 3182 3183 3185 3186 3187 3188 3189 3190 3191 3192 3193 3193 3194 3195 3195 3196 3198 3198 3199 3200 3202 3202 3203 3204 3205 3206 3207 3208 3209 3210 3211 3212 3212 3212 3212 3212 3212 3213 3212 3212 3212 3212 3212 3211 3210 3210 3209 3208 3208 3208 3207 3206 3206 3205 3205 3204 3203 3202 3201 3200 3200 3199 3198 3197 3197 3196 3195 3194 3192
3149 3150 3152 3154 3156 3158 3160 3162 3164 3166 3168 3170 3172 3174 3176 3177 3178 3180 3182 3183 3184 3185 3186 3187 3188 3188 3190 3191 3191 3192 3193 3194 3195 3196 3197 3198 3199 3200 3201 3201 3202 3204 3205 3206 3206 3207 3208 3209 3210 3209 3209 3210 3210 3211 3211 3210 3210 3210 3210 3209 3209 3208 3207 3206 3206 3206 3205 3205 3204 3203 3202 3202 3201 3200 3199 3198 3197 3197 3196 3195 3194 3194 3193 3192 3191
3146 3148 3150 3152 3153 3155 3157 3159 3161 3163 3165 3167 3169 3171 3173 3174 3175 3177 3179 3180 3181 3182 3182 3184 3185 3185 3186 3188 3189 3189 3191 3191 3192 3193 3194 3195 3196 3197 3198 3198 3199 3201 3202 3203 3203 3204 3205 3207 3207 3207 3206 3207 3208 3209 3209 3208 3208 3208 3207 3207 3207 3206 3206 3205 3204 3203 3203 3203 3202 3201 3200 3199 3198 3198 3197 3196 3195 3194 3194 3193 3192 3191 3191 3190 3189
3143 3145 3147 3149 3151 3152 3154 3156 3158 3161 3163 3165 3167 3168 3170 3172 3173 3174 3175 3177 3178 3179 3179 3180 3181 3182 3183 3184 3186 3186 3187 3188 3189 3190 3191 3192 3193 3194 3195 3195 3196 3198 3199 3200 3200 3201 3202 3203 3204 3204 3204 3204 3205 3206 3206 3206 3206 3205 3205 3205 3205 3204 3204 3203 3202 3201 3201 3201 3200 3199 3197 3197 3196 3195 3194 3194 3193 3192 3191 3191 3190 3189 3188 3188 3188
3139 3142 3144 3147 3148 3150 3152 3154 3157 3159 3161 3163 3164 3166 3167 3169 3170 3171 3172 3173 3175 3176 3176 3177 3178 3179 3180 3181 3182 3183 3184 3185 3186 3187 3188 3189 3189 3190 3192 3192 3193 3194 3195 3197 3197 3198 3199 3200 3201 3202 3202 3202 3202 3203 3203 3203 3203 3203 3202 3202 3202 3202 3201 3200 3200 3199 3198 3198 3198 3197 3195 3194 3193 3193 3192 3191 3190 3190 3189 3188 3187 3187 3186 3185 3186
3136 3138 3141 3143 3145 3148 3150 3152 3155 3157 3158 3160 3161 3163 3165 3166 3168 3169 3169 3170 3172 3173 3174 3174 3174 3176 3177 3178 3179 3180 3180 3181 3182 3183 3185 3186 3186 3187 3188 3189 3190 3191 3192 3193 3194 3195 3195 3196 3197 3198 3199 3199 3199 3200 3200 3200 3200 3200 3199 3199 3200 3200 3199 3198 3197 3196 3196 3195 3195 3194 3193 3192 3191 3190 3189 3188 3188 3187 3186 3185 3185 3184 3183 3182 3182
3133 3135 3137 3140 3142 3145 3147 3150 3152 3154 3155 3157 3159 3161 3162 3164 3165 3166 3167 3168 3169 3170 3171 3172 3172 3172 3174 3175 3176 3176 3176 3177 3178 3180 3181 3183 3184 3184 3185 3186 3187 3188 3188 3190 3191 3191 3192 3192 3193 3195 3195 3196 3196 3197 3197 3196 3196 3196 3196 3196 3196 3197 3196 3195 3194 3194 3193 3192 3192 3191 3190 3189 3188 3187 3186 3186 3185 3184 3183 3183 3182 3182 3181 3179 3178
3129 3132 3134 3136 3139 3141 3144 3147 3149 3151 3153 3154 3156 3158 3160 3161 3162 3163 3164 3165 3166 3167 3168 3169 3169 3170 3170 3172 3173 3173 3173 3174 3175 3177 3179 3180 3181 3181 3181 3182 3183 3184 3185 3186 3187 3188 3188 3189 3190 3190 3191 3192 3192 3193 3194 3193 3192 3192 3193 3192 3192 3193 3193 3192 3192 3191 3190 3190 3189 3188 3187 3186 3186 3185 3184 3183 3183 3182 3181 3180 3179 3179 3178 3177 3176
3126 3129 3131 3133 3136 3138 3141 3144 3146 3148 3150 3152 3153 3156 3158 3159 3160 3160 3162 3162 3163 3164 3165 3166 3168 3168 3168 3168 3169 3170 3171 3171 3172 3174 3175 3177 3177 3178 3178 3178 3179 3180 3181 3182 3183 3184 3185 3185 3186 3186 3186 3187 3188 3189 3190 3190 3189 3189 3189 3188 3188 3189 3190 3189 3189 3188 3187 3187 3186 3185 3184 3184 3183 3182 3181 3180 3179 3179 3178 3177 3176 3176 3175 3174 3173
3124 3125 3128 3130 3132 3135 3137 3140 3143 3145 3147 3149 3151 3153 3155 3156 3157 3158 3159 3160 3161 3162 3163 3164 3165 3166 3165 3165 3166 3167 3168 3169 3169 3171 3172 3173 3174 3175 3175 3175 3175 3176 3177 3178 3179 3180 3181 3181 3181 3182 3182 3182 3183 3184 3185 3186 3186 3185 3185 3185 3184 3185 3186 3186 3186 3186 3184 3183 3183 3182 3182 3181 3180 3179 3178 3177 3176 3176 3175 3174 3173 3173 3172 3171 3170
3121 3123 3125 3127 3129 3131 3134 3137 3140 3142 3143 3145 3147 3149 3151 3153 3154 3155 3156 3157 3158 3159 3160 3161 3161 3163 3163 3163 3163 3164 3165 3165 3166 3167 3169 3170 3171 3171 3171 3171 3172 3172 3173 3174 3175 3175 3176 3177 3177 3177 3178 3177 3178 3179 3181 3182 3182 3181 3181 3181 3181 3181 3182 3182 3183 3183 3182 3180 3179 3179 3179 3178 3177 3176 3175 3174 3173 3172 3172 3171 3170 3170 3169 3168 3168
3119 3120 3122 3124 3126 3128 3130 3133 3136 3138 3140 3142 3144 3146 3148 3150 3151 3152 3153 3154 3155 3156 3157 3158 3158 3159 3160 3160 3160 3160 3161 3162 3163 3164 3165 3167 3167 3168 3168 3167 3167 3168 3168 3169 3170 3171 3171 3172 3172 3172 3172 3172 3173 3174 3176 3177 3178 3177 3177 3177 3177 3177 3178 3179 3179 3179 3179 3177 3176 3175 3175 3174 3173 3172 3171 3170 3170 3169 3168 3168 3167 3166 3166 3165 3164
3116 3118 3120 3121 3123 3125 3127 3130 3132 3134 3137 3139 3141 3143 3145 3146 3148 3149 3150 3151 3152 3153 3154 3154 3155 3155 3156 3157 3157 3156 3157 3158 3159 3160 3162 3163 3164 3164 3164 3163 3163 3163 3164 3164 3165 3166 3167 3167 3167 3167 3167 3167 3168 3170 3171 3172 3172 3172 3172 3173 3173 3173 3174 3175 3175 3175 3175 3174 3173 3172 3171 3170 3169 3169 3168 3167 3166 3166 3165 3164 3163 3163 3162 3162 3161
3114 3115 3117 3119 3120 3122 3125 3127 3129 3131 3133 3136 3138 3140 3141 3143 3144 3146 3147 3148 3149 3149 3150 3151 3152 3152 3152 3153 3153 3153 3154 3154 3154 3156 3157 3159 3160 3160 3159 3159 3159 3159 3159 3159 3160 3160 3161 3162 3162 3161 3162 3162 3163 3165 3167 3167 3166 3167 3168 3168 3168 3169 3170 3170 3171 3171 3171 3170 3169 3168 3167 3167 3166 3165 3164 3164 3163 3162 3161 3160 3160 3159 3158 3158 3158
3111 3113 3114 3116 3118 3119 3121 3124 3126 3128 3130 3132 3134 3136 3138 3140 3141 3142 3143 3145 3145 3146 3147 3148 3148 3148 3148 3149 3149 3150 3150 3150 3150 3151 3152 3153 3154 3155 3155 3155 3154 3154 3154 3154 3154 3154 3155 3156 3156 3155 3156 3157 3159 3160 3161 3162 3162 3162 3163 3163 3163 3164 3165 3166 3166 3167 3167 3166 3165 3164 3163 3163 3163 3162 3161 3160 3159 3159 3158 3157 3157 3156 3155 3155 3155
3108 3110 3112 3113 3115 3116 3118 3120 3122 3125 3127 3129 3131 3133 3134 3136 3137 3139 3140 3141 3142 3142 3143 3143 3143 3144 3144 3144 3144 3145 3145 3146 3146 3147 3148 3148 3149 3150 3150 3150 3149 3149 3149 3149 3149 3149 3149 3149 3149 3149 3150 3152 3154 3154 3156 3157 3157 3157 3157 3158 3158 3159 3161 3161 3161 3162 3163 3162 3161 3160 3159 3159 3159 3158 3157 3157 3156 3155 3155 3154 3153 3152 3152 3152 3151
3105 3107 3109 3110 3112 3113 3115 3117 3119 3122 3124 3125 3127 3129 3131 3132 3133 3134 3136 3137 3137 3138 3138 3138 3139 3139 3139 3139 3139 3139 3140 3140 3141 3142 3143 3143 3143 3144 3144 3144 3144 3145 3145 3145 3144 3144 3143 3143 3143 3144 3145 3147 3148 3149 3149 3151 3153 3152 3151 3152 3153 3154 3156 3156 3156 3157 3158 3157 3157 3156 3155 3155 3155 3154 3153 3152 3152 3151 3151 3150 3150 3149 3149 3149 3148
3102 3104 3106 3108 3110 3111 3113 3115 3117 3118 3120 3122 3123 3125 3126 3127 3128 3130 3131 3132 3132 3133 3133 3134 3134 3135 3135 3135 3134 3135 3135 3135 3135 3137 3138 3138 3138 3138 3138 3138 3140 3140 3140 3140 3139 3139 3138 3137 3136 3137 3139 3141 3143 3143 3143 3145 3148 3147 3145 3146 3148 3149 3149 3150 3151 3152 3152 3152 3152 3151 3151 3150 3150 3149 3149 3148 3148 3147 3146 3146 3146 3146 3145 3145 3144
3099 3100 3102 3105 3107 3108 3110 3112 3113 3115 3116 3117 3119 3120 3121 3122 3123 3125 3126 3127 3127 3128 3129 3129 3129 3130 3130 3130 3130 3130 3130 3130 3130 3132 3134 3134 3134 3133 3133 3133 3135 3135 3135 3135 3135 3134 3133 3132 3130 3131 3133 3135 3137 3138 3137 3139 3142 3141 3140 3141 3142 3142 3143 3143 3144 3146 3146 3146 3146 3146 3145 3146 3145 3144 3144 3144 3144 3143 3142 3142 3142 3142 3142 3141 3141
3096 3097 3099 3101 3103 3105 3106 3108 3109 3111 3112 3114 3115 3116 3117 3118 3119 3120 3121 3122 3123 3124 3124 3124 3125 3125 3125 3126 3126 3126 3126 3125 3125 3127 3129 3129 3129 3129 3128 3128 3129 3130 3130 3130 3130 3130 3129 3128 3126 3125 3127 3129 3131 3132 3132 3133 3135 3135 3135 3135 3135 3135 3137 3136 3136 3139 3140 3140 3140 3140 3140 3140 3140 3140 3139 3139 3139 3139 3138 3138 3138 3138 3138 3137 3137
3093 3094 3096 3097 3099 3100 3102 3103 3105 3107 3108 3110 3111 3112 3113 3114 3115 3116 3117 3118 3119 3119 3120 3120 3120 3120 3121 3121 3121 3122 3122 3121 3121 3122 3124 3125 3124 3124 3124 3123 3123 3123 3123 3124 3125 3124 3123 3123 3121 3119 3120 3122 3124 3126 3126 3127 3129 3129 3129 3129 3128 3129 3130 3129 3129 3133 3134 3134 3134 3135 3135 3135 3135 3134 3134 3134 3134 3134 3134 3134 3134 3134 3134 3133 3133
3089 3091 3092 3094 3095 3096 3098 3099 3101 3103 3105 3106 3107 3109 3110 3111 3111 3112 3113 3114 3114 3115 3115 3115 3115 3115 3116 3116 3117 3117 3117 3116 3116 3117 3119 3120 3119 3119 3119 3118 3117 3117 3116 3117 3118 3117 3117 3117 3114 3112 3113 3114 3116 3118 3119 3120 3122 3123 3123 3122 3121 3122 3123 3122 3123 3126 3128 3128 3128 3129 3129 3130 3130 3129 3129 3129 3129 3129 3129 3129 3130 3129 3129 3129 3129
3086 3087 3089 3090 3092 3094 3096 3097 3099 3101 3102 3103 3104 3105 3106 3107 3107 3108 3109 3110 3110 3110 3111 3111 3111 3111 3112 3112 3112 3112 3112 3112 3112 3113 3113 3114 3114 3113 3113 3112 3111 3110 3109 3110 3110 3110 3110 3111 3108 3105 3106 3107 3108 3110 3112 3113 3116 3117 3117 3116 3115 3115 3116 3116 3116 3120 3122 3122 3122 3123 3124 3124 3124 3124 3124 3124 3124 3124 3125 3125 3125 3125 3125 3125 3125
3083 3084 3086 3087 3089 3091 3093 3095 3096 3098 3099 3099 3100 3101 3102 3103 3104 3105 3105 3106 3106 3106 3107 3107 3108 3108 3108 3108 3108 3108 3107 3107 3108 3109 3108 3106 3106 3107 3106 3105 3105 3104 3103 3103 3103 3102 3103 3104 3101 3098 3098 3099 3100 3102 3104 3106 3107 3108 3108 3108 3107 3107 3109 3110 3111 3113 3116 3117 3117 3117 3118 3119 3118 3118 3118 3120 3120 3121 3121 3122 3121 3121 3121 3120 3121
3081 3082 3084 3085 3086 3088 3090 3091 3093 3094 3094 3095 3096 3096 3098 3099 3100 3100 3101 3102 3102 3103 3103 3103 3103 3103 3103 3103 3103 3103 3103 3103 3103 3104 3102 3099 3098 3100 3099 3099 3099 3097 3096 3097 3096 3095 3095 3095 3092 3090 3091 3093 3093 3094 3095 3096 3098 3099 3100 3100 3101 3101 3102 3104 3105 3106 3109 3110 3110 3110 3111 3112 3112 3112 3114 3116 3117 3117 3118 3118 3117 3117 3117 3116 3117
3079 3080 3081 3083 3084 3085 3086 3088 3089 3089 3090 3091 3092 3093 3095 3096 3096 3096 3097 3098 3098 3098 3098 3098 3098 3098 3098 3097 3097 3097 3097 3097 3098 3097 3095 3093 3092 3092 3092 3092 3092 3091 3091 3091 3089 3088 3088 3085 3081 3081 3084 3087 3088 3087 3086 3087 3090 3091 3091 3091 3093 3093 3094 3095 3097 3098 3101 3103 3103 3103 3104 3106 3106 3108 3110 3112 3112 3112 3114 3115 3114 3113 3113 3113 3114
3077 3078 3079 3080 3081 3082 3083 3085 3086 3086 3086 3087 3089 3091 3092 3092 3092 3093 3094 3094 3094 3094 3094 3094 3094 3094 3093 3092 3092 3091 3091 3091 3091 3091 3090 3089 3087 3086 3085 3085 3084 3083 3084 3085 3082 3081 3080 3077 3072 3071 3074 3078 3080 3079 3078 3078 3080 3081 3081 3081 3082 3083 3084 3086 3088 3089 3092 3095 3096 3096 3097 3099 3101 3104 3106 3107 3107 3109 3110 3111 3110 3110 3109 3109 3110
3073 3074 3076 3077 3078 3079 3080 3082 3083 3083 3084 3085 3086 3087 3088 3088 3088 3088 3089 3089 3088 3089 3089 3089 3089 3088 3087 3087 3086 3085 3084 3084 3084 3084 3084 3083 3082 3080 3079 3077 3076 3074 3075 3074 3072 3070 3071 3068 3062 3059 3062 3067 3068 3067 3067 3068 3069 3069 3070 3070 3071 3072 3073 3076 3078 3080 3083 3086 3088 3089 3091 3093 3096 3099 3101 3102 3103 3105 3106 3106 3107 3106 3106 3106 3107
3070 3071 3073 3074 3075 3076 3077 3078 3080 3080 3081 3081 3082 3082 3083 3084 3083 3083 3083 3083 3083 3084 3084 3083 3083 3083 3082 3081 3080 3079 3078 3077 3077 3076 3076 3075 3074 3072 3070 3070 3069 3068 3066 3063 3059 3058 3059 3058 3052 3047 3048 3052 3052 3051 3051 3053 3056 3057 3057 3057 3059 3060 3062 3065 3069 3071 3073 3077 3080 3082 3085 3087 3090 3093 3096 3097 3099 3100 3101 3102 3102 3102 3102 3103 3103
3067 3068 3070 3071 3072 3073 3074 3075 3076 3076 3077 3077 3077 3078 3078 3079 3079 3078 3078 3079 3079 3079 3079 3078 3077 3077 3076 3075 3074 3072 3072 3071 3070 3069 3068 3067 3066 3064 3062 3061 3061 3060 3057 3053 3048 3047 3048 3046 3041 3035 3033 3035 3037 3038 3038 3039 3042 3044 3044 3044 3045 3048 3052 3056 3060 3062 3064 3068 3072 3075 3078 3081 3084 3087 3090 3092 3094 3095 3096 3097 3098 3098 3098 3099 3100
3064 3065 3066 3067 3068 3069 3070 3071 3072 3072 3073 3073 3073 3074 3074 3074 3074 3074 3074 3074 3074 3074 3073 3072 3072 3071 3070 3069 3067 3066 3065 3064 3063 3062 3061 3060 3058 3056 3054 3053 3052 3051 3047 3043 3040 3037 3035 3033 3028 3023 3021 3021 3023 3025 3027 3029 3031 3032 3034 3035 3037 3041 3044 3048 3051 3054 3058 3062 3064 3067 3071 3074 3077 3080 3084 3086 3088 3090 3091 3092 3092 3093 3094 3096 3096
3061 3062 3063 3064 3065 3066 3066 3067 3068 3068 3068 3069 3069 3070 3070 3070 3070 3070 3069 3069 3069 3069 3068 3067 3066 3066 3065 3063 3062 3061 3060 3058 3058 3056 3055 3053 3051 3049 3047 3045 3044 3043 3039 3034 3031 3027 3023 3020 3016 3011 3008 3007 3008 3009 3013 3018 3021 3023 3024 3025 3028 3032 3035 3039 3043 3049 3053 3055 3057 3059 3063 3067 3070 3074 3077 3080 3082 3085 3087 3087 3087 3089 3090 3091 3092
3057 3058 3059 3060 3061 3062 3062 3063 3063 3064 3064 3065 3065 3066 3066 3066 3066 3066 3065 3065 3065 3064 3064 3062 3061 3061 3060 3059 3058 3056 3054 3053 3052 3051 3049 3047 3044 3042 3040 3037 3035 3033 3030 3025 3021 3016 3012 3008 3004 2998 2994 2993 2992 2991 2993 2998 3004 3009 3012 3013 3016 3021 3024 3029 3035 3040 3045 3048 3051 3053 3057 3061 3064 3068 3071 3074 3077 3080 3082 3082 3082 3084 3085 3086 3088
3054 3055 3056 3056 3057 3058 3058 3059 3060 3060 3061 3061 3062 3062 3062 3062 3062 3062 3061 3061 3060 3060 3059 3058 3057 3056 3055 3054 3053 3051 3049 3048 3047 3045 3043 3040 3037 3035 3032 3029 3026 3023 3019 3014 3009 3004 2999 2996 2991 2984 2978 2975 2974 2973 2974 2979 2988 2995 2998 3000 3005 3010 3015 3021 3027 3033 3036 3040 3045 3048 3051 3055 3059 3063 3066 3069 3071 3074 3076 3078 3079 3080 3081 3082 3083
3051 3052 3053 3053 3054 3055 3055 3056 3057 3058 3058 3058 3059 3059 3059 3058 3058 3058 3057 3057 3056 3056 3055 3054 3054 3053 3051 3050 3048 3046 3044 3043 3041 3039 3037 3035 3031 3028 3025 3021 3017 3013 3009 3005 2999 2992 2986 2982 2976 2968 2962 2960 2961 2962 2963 2966 2973 2983 2990 2995 2998 3003 3009 3017 3023 3027 3031 3035 3039 3044 3048 3051 3054 3059 3062 3064 3066 3069 3072 3074 3076 3076 3077 3078 3079
3049 3050 3050 3051 3052 3052 3053 3054 3054 3055 3055 3055 3055 3055 3055 3055 3054 3054 3053 3053 3052 3052 3051 3050 3050 3048 3047 3045 3044 3041 3039 3037 3036 3034 3031 3028 3025 3021 3018 3013 3008 3003 3000 2996 2990 2982 2974 2968 2962 2954 2949 2948 2951 2954 2955 2956 2961 2972 2983 2989 2994 2999 3006 3012 3015 3019 3025 3031 3035 3039 3043 3047 3050 3054 3057 3059 3061 3064 3067 3070 3072 3073 3073 3074 3075
3047 3047 3048 3049 3049 3050 3050 3051 3051 3051 3051 3051 3051 3051 3051 3051 3051 3051 3050 3050 3049 3048 3047 3046 3045 3044 3043 3041 3038 3036 3034 3032 3030 3028 3025 3021 3018 3014 3010 3005 2999 2994 2990 2986 2980 2972 2965 2959 2952 2945 2941 2940 2944 2947 2947 2946 2953 2965 2976 2982 2989 2997 3002 3006 3009 3015 3022 3027 3031 3034 3039 3043 3047 3050 3053 3055 3057 3060 3063 3066 3068 3069 3069 3070 3071
3044 3044 3045 3045 3046 3046 3047 3048 3048 3048 3048 3048 3048 3048 3048 3048 3048 3047 3047 3046 3045 3044 3043 3042 3041 3040 3038 3036 3034 3031 3029 3027 3025 3023 3020 3016 3012 3008 3005 3000 2994 2988 2982 2977 2970 2965 2959 2954 2947 2942 2938 2938 2941 2945 2944 2943 2951 2965 2974 2979 2985 2990 2993 2997 3006 3015 3021 3025 3029 3033 3036 3039 3042 3046 3049 3052 3055 3058 3060 3063 3064 3065 3065 3066 3066
3042 3042 3042 3042 3043 3043 3044 3044 3045 3045 3045 3045 3045 3045 3044 3044 3044 3044 3043 3043 3042 3040 3039 3038 3037 3035 3034 3032 3030 3028 3025 3023 3022 3019 3016 3012 3008 3005 3002 2998 2992 2986 2981 2974 2968 2963 2958 2951 2946 2944 2942 2940 2939 2943 2949 2956 2963 2969 2971 2975 2981 2984 2987 2994 3005 3014 3019 3023 3028 3031 3034 3036 3039 3043 3047 3051 3053 3055 3057 3059 3061 3061 3062 3062 3062
3039 3039 3039 3039 3039 3040 3041 3041 3042 3042 3042 3041 3041 3041 3041 3041 3041 3040 3040 3040 3038 3037 3036 3035 3033 3031 3029 3028 3026 3024 3022 3020 3018 3016 3013 3010 3006 3004 3001 2997 2991 2987 2983 2978 2973 2969 2963 2955 2949 2947 2948 2947 2944 2944 2949 2959 2967 2970 2973 2979 2984 2987 2990 2997 3005 3012 3016 3021 3024 3028 3031 3034 3037 3042 3045 3048 3051 3053 3054 3056 3057 3057 3057 3058 3059
3037 3037 3037 3036 3036 3037 3038 3039 3039 3039 3038 3038 3037 3037 3037 3037 3037 3036 3036 3036 3035 3033 3033 3031 3030 3028 3026 3024 3023 3021 3019 3017 3015 3013 3010 3008 3005 3002 2999 2996 2992 2988 2985 2982 2979 2977 2973 2967 2961 2959 2960 2961 2961 2959 2960 2965 2971 2975 2980 2985 2989 2990 2994 3001 3007 3011 3015 3019 3022 3025 3029 3032 3036 3040 3043 3046 3048 3050 3051 3052 3052 3053 3053 3054 3055
3034 3034 3033 3033 3033 3034 3035 3036 3036 3035 3034 3033 3033 3032 3032 3032 3032 3032 3032 3031 3031 3030 3029 3028 3026 3025 3022 3021 3020 3018 3016 3014 3012 3010 3008 3006 3004 3001 2998 2996 2993 2989 2987 2985 2983 2981 2979 2975 2972 2971 2972 2973 2974 2975 2977 2980 2983 2985 2986 2989 2991 2995 2999 3004 3008 3011 3014 3017 3021 3025 3029 3032 3036 3039 3041 3044 3045 3047 3047 3047 3048 3049 3049 3050 3051
3031 3031 3030 3029 3029 3031 3031 3031 3031 3030 3029 3029 3028 3028 3028 3028 3028 3028 3027 3027 3026 3026 3025 3024 3024 3022 3020 3018 3017 3016 3013 3011 3010 3008 3006 3004 3002 3000 2998 2996 2994 2991 2988 2987 2985 2984 2982 2980 2977 2977 2977 2978 2979 2981 2985 2989 2991 2992 2992 2993 2995 2998 3002 3005 3007 3010 3014 3018 3022 3025 3029 3032 3035 3037 3039 3041 3042 3043 3043 3043 3044 3045 3046 3046 3047
3028 3027 3026 3026 3026 3027 3027 3027 3026 3026 3025 3024 3024 3024 3024 3024 3024 3024 3023 3023 3022 3022 3021 3021 3020 3019 3017 3015 3014 3014 3011 3009 3007 3006 3004 3002 3001 2999 2997 2996 2994 2992 2990 2989 2987 2986 2984 2984 2982 2981 2980 2981 2983 2986 2990 2993 2994 2994 2995 2995 2997 2999 3002 3005 3008 3011 3015 3019 3022 3026 3028 3031 3033 3035 3036 3037 3038 3039 3039 3039 3040 3041 3042 3043 3043
3025 3024 3023 3023 3023 3023 3023 3023 3023 3022 3022 3021 3021 3021 3022 3021 3021 3020 3019 3019 3018 3018 3017 3017 3017 3016 3015 3013 3012 3011 3009 3007 3006 3004 3003 3001 3000 2998 2997 2995 2994 2993 2991 2990 2990 2989 2988 2987 2987 2986 2985 2985 2987 2989 2992 2994 2995 2995 2996 2997 2999 3001 3004 3006 3010 3013 3016 3019 3022 3025 3027 3029 3031 3032 3033 3034 3034 3035 3036 3036 3036 3037 3038 3039 3040
3022 3021 3020 3020 3021 3021 3021 3021 3020 3020 3019 3019 3019 3019 3019 3018 3017 3016 3015 3015 3014 3014 3014 3014 3014 3013 3012 3011 3010 3009 3007 3005 3003 3002 3001 3000 2999 2998 2997 2995 2994 2993 2992 2991 2991 2991 2991 2991 2990 2990 2990 2990 2991 2993 2994 2996 2997 2998 2999 3000 3002 3004 3006 3009 3011 3014 3016 3019 3022 3024 3025 3027 3028 3029 3030 3031 3031 3031 3032 3032 3033 3033 3034 3036 3037
3019 3019 3018 3019 3019 3019 3019 3018 3018 3018 3018 3018 3018 3017 3016 3015 3014 3013 3012 3012 3011 3012 3012 3012 3011 3011 3010 3009 3008 3006 3005 3003 3001 3000 3000 2999 2999 2998 2997 2996 2994 2993 2992 2991 2991 2992 2992 2992 2992 2992 2993 2993 2995 2996 2997 2998 3000 3001 3002 3003 3004 3005 3007 3009 3011 3013 3015 3018 3020 3022 3023 3024 3025 3025 3026 3027 3028 3027 3028 3029 3029 3030 3031 3032 3034
3017 3017 3017 3017 3017 3017 3017 3016 3016 3016 3016 3016 3015 3015 3013 3012 3011 3011 3010 3009 3009 3009 3009 3009 3009 3009 3008 3007 3006 3004 3002 3001 3000 2999 2999 2999 2999 2998 2997 2996 2995 2994 2993 2992 2993 2993 2993 2993 2993 2994 2995 2996 2997 2998 2999 3000 3001 3002 3002 3003 3004 3006 3007 3009 3011 3012 3014 3016 3018 3019 3020 3021 3021 3021 3022 3023 3023 3023 3024 3025 3026 3027 3028 3029 3030